• In India
  • List of Countries
  • For 7 days
  • Water Temperature
  • Satellite Maps
  • Weather Map
  • Weather Widgets
  • user-avatar
    Login

    Hourly Weather Spytkowice

    Today, 18 January, Thursday

    Time Temperature Precipitation Wind Pressure Humidity
    00:00 -4°C° 0.1 mm 4 mps 703 mmHg 85%
    01:00 -4°C° 0 mm 3 mps 703 mmHg 87%
    02:00 -5°C° 0 mm 3 mps 704 mmHg 88%
    03:00 -5°C° 0 mm 3 mps 704 mmHg 89%
    04:00 -4°C° 0 mm 2 mps 705 mmHg 89%
    05:00 -4°C° 0 mm 2 mps 705 mmHg 89%
    06:00 -4°C° 0 mm 2 mps 705 mmHg 89%
    07:00 -4°C° 0 mm 2 mps 706 mmHg 89%
    08:00 -4°C° 0 mm 3 mps 706 mmHg 84%
    09:00 -2°C° 0 mm 3 mps 707 mmHg 80%
    10:00 -1°C° 0 mm 3 mps 707 mmHg 76%
    11:00 -1°C° 0 mm 3 mps 706 mmHg 72%
    12:00 0°C° 0 mm 3 mps 706 mmHg 69%
    13:00 0°C° 0 mm 3 mps 706 mmHg 65%
    14:00 -1°C° 0.1 mm 4 mps 705 mmHg 68%
    15:00 -2°C° 0.1 mm 5 mps 704 mmHg 70%
    16:00 -2°C° 0.1 mm 5 mps 703 mmHg 73%
    17:00 -3°C° 0.2 mm 6 mps 702 mmHg 73%
    18:00 -2°C° 0.2 mm 7 mps 701 mmHg 73%
    19:00 -2°C° 0.2 mm 8 mps 700 mmHg 73%
    20:00 -2°C° 0.3 mm 7 mps 700 mmHg 75%
    21:00 -2°C° 0.3 mm 7 mps 700 mmHg 76%
    22:00 -2°C° 0.3 mm 7 mps 700 mmHg 77%
    23:00 -2°C° 0.1 mm 7 mps 700 mmHg 77%

    Tomorrow, 19 January, Friday

    Time Temperature Precipitation Wind Pressure Humidity
    00:00 -2°C° 0.1 mm 7 mps 700 mmHg 76%
    01:00 -2°C° 0.1 mm 7 mps 700 mmHg 76%
    02:00 -2°C° 0.1 mm 7 mps 701 mmHg 76%
    03:00 -3°C° 0.1 mm 7 mps 701 mmHg 76%
    04:00 -3°C° 0.1 mm 7 mps 701 mmHg 76%
    05:00 -3°C° 0 mm 6 mps 702 mmHg 77%
    06:00 -3°C° 0 mm 6 mps 702 mmHg 78%
    07:00 -3°C° 0 mm 6 mps 703 mmHg 78%
    08:00 -3°C° 0.1 mm 6 mps 704 mmHg 78%
    09:00 -3°C° 0.1 mm 6 mps 704 mmHg 78%
    10:00 -2°C° 0.1 mm 6 mps 705 mmHg 77%
    11:00 -1°C° 0.1 mm 5 mps 706 mmHg 76%
    12:00 -1°C° 0.1 mm 5 mps 706 mmHg 75%
    13:00 -1°C° 0.1 mm 5 mps 706 mmHg 73%
    14:00 -1°C° 0.1 mm 4 mps 706 mmHg 77%
    15:00 -1°C° 0.1 mm 3 mps 707 mmHg 80%
    16:00 -1°C° 0.1 mm 3 mps 707 mmHg 84%
    17:00 -2°C° 0 mm 2 mps 707 mmHg 86%
    18:00 -2°C° 0 mm 2 mps 708 mmHg 88%
    19:00 -2°C° 0 mm 2 mps 708 mmHg 90%
    20:00 -3°C° 0.1 mm 2 mps 708 mmHg 90%
    21:00 -3°C° 0.1 mm 2 mps 709 mmHg 90%
    22:00 -1°C° 0.1 mm 1 mps 709 mmHg 90%
    23:00 -3°C° 0.1 mm 2 mps 709 mmHg 90%

    Day after tomorrow, 20 January, Saturday

    Time Temperature Precipitation Wind Pressure Humidity
    00:00 -3°C° 0.1 mm 2 mps 709 mmHg 90%
    01:00 -3°C° 0.1 mm 2 mps 709 mmHg 91%
    02:00 -4°C° 0 mm 2 mps 709 mmHg 91%
    03:00 -4°C° 0 mm 2 mps 709 mmHg 90%
    04:00 -5°C° 0 mm 2 mps 709 mmHg 90%
    05:00 -5°C° 0 mm 2 mps 709 mmHg 89%
    06:00 -5°C° 0 mm 2 mps 709 mmHg 87%
    07:00 -5°C° 0 mm 2 mps 709 mmHg 86%
    08:00 -4°C° 0.1 mm 2 mps 709 mmHg 82%
    09:00 -3°C° 0.1 mm 2 mps 709 mmHg 79%
    10:00 -2°C° 0.1 mm 2 mps 709 mmHg 75%
    11:00 -1°C° 0.1 mm 3 mps 708 mmHg 76%
    12:00 -1°C° 0.1 mm 3 mps 708 mmHg 76%
    13:00 0°C° 0.1 mm 3 mps 707 mmHg 76%
    14:00 -1°C° 0.1 mm 3 mps 707 mmHg 78%
    15:00 -1°C° 0.1 mm 3 mps 706 mmHg 79%
    16:00 -1°C° 0.1 mm 3 mps 706 mmHg 81%
    17:00 -2°C° 0.1 mm 3 mps 706 mmHg 83%
    18:00 -2°C° 0.1 mm 3 mps 706 mmHg 84%
    19:00 -2°C° 0.1 mm 3 mps 706 mmHg 86%
    20:00 -2°C° 0.6 mm 3 mps 706 mmHg 88%
    21:00 -3°C° 0.6 mm 2 mps 706 mmHg 90%
    22:00 -3°C° 0.6 mm 2 mps 706 mmHg 92%
    23:00 -1°C° 0.5 mm 1 mps 707 mmHg 93%

    21 January, Sunday

    Time Temperature Precipitation Wind Pressure Humidity
    00:00 -1°C° 0.5 mm 1 mps 707 mmHg 93%
    01:00 -2°C° 0.5 mm 1 mps 707 mmHg 94%
    02:00 -2°C° 0.2 mm 1 mps 708 mmHg 94%
    03:00 -2°C° 0.2 mm 1 mps 708 mmHg 94%
    04:00 -2°C° 0.2 mm 1 mps 708 mmHg 94%
    05:00 -2°C° 0 mm 1 mps 709 mmHg 93%
    06:00 -3°C° 0 mm 1 mps 709 mmHg 93%
    07:00 -3°C° 0 mm 1 mps 710 mmHg 93%
    08:00 -4°C° 0 mm 2 mps 710 mmHg 90%
    09:00 -4°C° 0 mm 2 mps 711 mmHg 87%
    10:00 -3°C° 0 mm 2 mps 711 mmHg 84%
    11:00 -4°C° 0.1 mm 3 mps 712 mmHg 83%
    12:00 -4°C° 0.1 mm 3 mps 712 mmHg 81%
    13:00 -2°C° 0.1 mm 3 mps 712 mmHg 80%
    14:00 -3°C° 0.1 mm 2 mps 713 mmHg 82%
    15:00 -3°C° 0.1 mm 2 mps 713 mmHg 84%
    16:00 -3°C° 0.1 mm 2 mps 713 mmHg 87%
    17:00 -4°C° 0.1 mm 2 mps 714 mmHg 89%
    18:00 -3°C° 0.1 mm 1 mps 714 mmHg 91%
    19:00 -3°C° 0.1 mm 1 mps 714 mmHg 93%
    20:00 -4°C° 0 mm 1 mps 714 mmHg 93%
    21:00 -4°C° 0 mm 1 mps 715 mmHg 94%
    22:00 -4°C° 0 mm 1 mps 715 mmHg 94%
    23:00 -6°C° 0 mm 1 mps 715 mmHg 94%

    22 January, Monday

    Time Temperature Precipitation Wind Pressure Humidity
    00:00 -6°C° 0 mm 1 mps 715 mmHg 94%
    01:00 -6°C° 0 mm 0 mps 715 mmHg 94%
    02:00 -7°C° 0 mm 0 mps 715 mmHg 94%
    03:00 -7°C° 0 mm 0 mps 715 mmHg 93%
    04:00 -7°C° 0 mm 1 mps 715 mmHg 93%
    05:00 -7°C° 0 mm 1 mps 715 mmHg 92%
    06:00 -8°C° 0 mm 1 mps 715 mmHg 91%
    07:00 -8°C° 0 mm 1 mps 715 mmHg 90%
    08:00 -6°C° 0 mm 1 mps 715 mmHg 85%
    09:00 -4°C° 0 mm 1 mps 716 mmHg 80%
    10:00 -3°C° 0 mm 1 mps 716 mmHg 76%
    11:00 -2°C° 0 mm 1 mps 716 mmHg 71%
    12:00 -1°C° 0 mm 1 mps 716 mmHg 67%
    13:00 0°C° 0 mm 1 mps 716 mmHg 63%
    14:00 -1°C° 0 mm 1 mps 716 mmHg 67%
    15:00 -2°C° 0 mm 1 mps 716 mmHg 72%
    16:00 -3°C° 0 mm 1 mps 716 mmHg 76%
    17:00 -3°C° 0 mm 1 mps 717 mmHg 77%
    18:00 -4°C° 0 mm 1 mps 717 mmHg 78%
    19:00 -4°C° 0 mm 1 mps 717 mmHg 80%
    20:00 -4°C° 0 mm 1 mps 717 mmHg 78%
    21:00 -4°C° 0 mm 1 mps 717 mmHg 77%
    22:00 -4°C° 0 mm 1 mps 718 mmHg 75%
    23:00 -5°C° 0 mm 2 mps 717 mmHg 75%

    23 January, Tuesday

    Time Temperature Precipitation Wind Pressure Humidity
    00:00 -5°C° 0 mm 2 mps 717 mmHg 75%
    01:00 -5°C° 0 mm 2 mps 717 mmHg 76%
    02:00 -5°C° 0 mm 2 mps 717 mmHg 77%
    03:00 -4°C° 0 mm 2 mps 717 mmHg 79%
    04:00 -4°C° 0 mm 2 mps 717 mmHg 81%
    05:00 -4°C° 0 mm 2 mps 717 mmHg 83%
    06:00 -4°C° 0 mm 2 mps 717 mmHg 85%
    07:00 -5°C° 0 mm 2 mps 717 mmHg 87%
    08:00 -3°C° 0 mm 2 mps 717 mmHg 85%
    09:00 -2°C° 0 mm 2 mps 717 mmHg 84%
    10:00 -1°C° 0 mm 2 mps 718 mmHg 82%
    11:00 -1°C° 0.3 mm 2 mps 717 mmHg 83%
    12:00 0°C° 0.3 mm 3 mps 717 mmHg 85%
    13:00 0°C° 0.3 mm 3 mps 717 mmHg 86%
    14:00 +1°C° 0.5 mm 3 mps 717 mmHg 88%
    15:00 +1°C° 0.5 mm 3 mps 717 mmHg 89%
    16:00 +1°C° 0.5 mm 3 mps 716 mmHg 91%
    17:00 +1°C° 0.3 mm 3 mps 716 mmHg 92%
    18:00 +2°C° 0.3 mm 3 mps 717 mmHg 93%
    19:00 +2°C° 0.3 mm 3 mps 717 mmHg 94%
    20:00 +2°C° 0.3 mm 3 mps 717 mmHg 94%
    21:00 +2°C° 0.3 mm 3 mps 717 mmHg 94%
    22:00 +1°C° 0.3 mm 4 mps 717 mmHg 95%
    23:00 +1°C° 0.1 mm 4 mps 717 mmHg 94%
    Show more